カタログに戻る

USA 179

運用中軍事HEO
NORAD 28384·PAYLOAD·🇺🇸 United States

打ち上げ Aug 31, 2004 から Cape Canaveral Space Force Station

Loading…

次のパス (今後24時間)

TLE

最新Source: Mike McCants

元期: Sep 15, 2026, 00:19 UTC

1 28384U 04034A   26258.01366971  .00001481  00000-0  00000-0 0    09
2 28384  63.5857 196.1275 7259984 255.8699  20.4332  2.00447793  5746

AllMySatでUSA 179をリアルタイム追跡

Download on the App Store